Flag for Sweden Weather past 2 weeks in Norrköping, Sweden

Now
52 °F

Cool.


Feels Like: 50 °F
Forecast: 52 / 65 °F
Wind: 6 mph from West

Location: Norrkoping Airport

Current Time: Aug 1, 2015 at 2:18:59 AM

Latest Report: Aug 1, 2015 at 1:50 AM


Visibility: N/A

Pressure: 29.86 "Hg

Humidity: 100%

Dew point: 52 °F

Location of NorrköpingLocation

Historic Weather in Norrköping — Graph

°F

Norrköping temperature yesterday

Maximum temperature yesterday: 64 °F (at 3:20 PM)
Minimum temperature yesterday: 52 °F (at 1:20 AM)
Average temperature yesterday: 59 °F

Past Weeks' High & Low Weather Summary

 TemperatureHumidityPressure
High70 °F (Jul 18, 4:20 PM)100% (Jul 21, 5:50 AM)29.98 "Hg (Jul 21, 5:50 AM)
Low43 °F (Jul 25, 5:20 AM)46% (Jul 18, 5:50 PM)29.33 "Hg (Jul 26, 12:20 PM)
Average59 °F81%29.66 "Hg
* Reported Jul 17 1:20 AM — Aug 1 1:20 AM, Norrköping, Weather by CustomWeather, © 2015

Note: Actual official high and low records may vary slightly from our data, if they occured in-between our weather recording intervals... More about our weather records

Advertising

Norrköping weather history for previous 24 hours

 ConditionsComfort  
Time TempWeatherWind HumidityBarometerVisibility
1:20 AM
Sat, Aug 1
52 °FClear.5 mph100%29.86 "Hg10 mi
12:50 AM54 °FClear.5 mph94%29.86 "Hg10 mi
12:20 AM54 °FPassing clouds.3 mph94%29.83 "HgN/A
11:50 PM
Fri, Jul 31
55 °FPartly cloudy.2 mph94%29.83 "HgN/A
11:20 PM54 °FPassing clouds.5 mph94%29.83 "HgN/A
10:50 PM55 °FPassing clouds.5 mph94%29.83 "HgN/A
10:20 PM55 °FPassing clouds.7 mph94%29.83 "HgN/A
9:50 PM57 °FPartly sunny.3 mph88%29.80 "HgN/A
9:20 PM59 °FPartly sunny.5 mph82%29.80 "HgN/A
8:50 PM59 °FOvercast.6 mph88%29.80 "HgN/A
8:20 PM61 °FPartly sunny.6 mph77%29.80 "HgN/A
7:50 PM61 °FScattered clouds.7 mph77%29.80 "HgN/A
7:20 PM63 °FScattered clouds.8 mph73%29.77 "HgN/A
6:50 PM63 °FScattered clouds.9 mph73%29.77 "HgN/A
6:20 PM63 °FPartly sunny.12 mph73%29.80 "HgN/A
5:50 PM63 °FPartly sunny.10 mph68%29.77 "HgN/A
5:20 PM63 °FPartly sunny.14 mph68%29.77 "HgN/A
4:50 PM63 °FScattered clouds.13 mph77%29.77 "HgN/A
4:20 PM63 °FScattered clouds.15 mph77%29.77 "HgN/A
3:50 PM64 °FPartly sunny.14 mph78%29.77 "HgN/A
3:20 PM64 °FPartly sunny.10 mph73%29.77 "HgN/A
2:50 PM63 °FPartly sunny.7 mph83%29.77 "HgN/A
2:20 PM63 °FPartly sunny.6 mph77%29.77 "HgN/A
1:50 PM63 °FPartly sunny.5 mph77%29.77 "HgN/A
1:20 PM63 °FPartly sunny.5 mph83%29.74 "HgN/A
12:50 PM61 °FPartly sunny.6 mph83%29.74 "HgN/A
12:20 PM61 °FPartly sunny.6 mph83%29.74 "HgN/A
11:50 AM59 °FPartly sunny.7 mph88%29.74 "HgN/A
11:20 AM59 °FPartly sunny.9 mph88%29.74 "HgN/A
10:50 AM59 °FPartly sunny.9 mph88%29.74 "HgN/A
10:20 AM59 °FPartly sunny.12 mph88%29.71 "HgN/A
9:20 AM61 °FBroken clouds.7 mph88%29.71 "HgN/A
8:50 AM59 °FScattered clouds.6 mph94%29.68 "HgN/A
8:20 AM59 °FPartly sunny.6 mph94%29.68 "HgN/A
7:50 AM59 °FPartly sunny.5 mph94%29.68 "HgN/A
7:20 AM57 °FScattered clouds.5 mph100%29.68 "HgN/A
6:50 AM57 °FScattered clouds.3 mph100%29.68 "HgN/A
6:20 AM55 °FScattered clouds.3 mph100%29.65 "HgN/A
5:50 AM55 °FPartly sunny.3 mph100%29.65 "HgN/A
5:20 AM55 °FPassing clouds.5 mph100%29.65 "HgN/A
4:50 AM54 °FLight rain. Mostly cloudy.3 mph100%29.65 "Hg4 mi
4:20 AM54 °FPassing clouds.3 mph100%29.65 "HgN/A
3:50 AM52 °FPassing clouds.3 mph100%29.62 "HgN/A
3:20 AM54 °FPassing clouds.3 mph100%29.62 "HgN/A
2:50 AM55 °FClear.3 mph100%29.62 "Hg10 mi
2:20 AM55 °FClear.5 mph100%29.62 "Hg10 mi
Weather by CustomWeather, © 2015

See weather overviewHow to use our weather pages